Карточка аэропорта UUBW

Внимание!
Информация на этой странице в стадии наполнения.
Если вы не увидели какой-то информации, или заметили неточность - пожалуйста сообщите нам!
Спасибо!
Команда RU-STAFF
Название аэропортаРаменское
Название аэропорта (англ.)Ramenskoye
Превышение1325 ft. (403.9 m.)
Координаты55°33.168', 38°8.9820000000002'
Высота перехода10000 ft
Эшелон переходаQNH>=1013hPa:FL110; QNH<1013hPa:FL120; QNH<977hPa:FL130
Коды ответчика
Зона ОрВДМосква РПИ (UUWV)
Данные METARUUBW 300700Z 18005MPS 9999 OVC012 M02/M05 Q1003 R30/110055 TEMPO -FZDZ
Проноз погоды (TAF)UUBW 300450Z 3006/3106 20005MPS 6000 OVC010 TXM01/3012Z TNM03/3006Z TEMPO 3006/3014 2100 -SN -FZDZ OVC007 TEMPO 3014/3024 21008G13MPS 1500 SHSN -FZDZ OVC005 SCT012CB TEMPO 3100/3106 2100 -SN OVC007
NOTAMshow/hide NOTAM
AWOS   TABLE

Информация о ВПП

ВПП Длина ВПП (м.) Покрытие Курс ВПП Частота ILS
124600Цементобетон121 
304600Цементобетон301 

Диспетчерские позиции


Сценарии

Сценарий
Нет результатов.


Спутниковое изображение